Home   Weather   Waipahu   Past weeks
Flag for USA

Past Weather in Waipahu, Hawaii, USA — Yesterday and Last 2 Weeks

Now
79 °F

Scattered clouds.


Feels Like: 82 °F
Forecast: 88 / 74 °F
Wind: 6 mph from Southeast

Location: Wheeler Air Force Base / Oahu

Current Time: Oct 13, 2019 at 11:21:50 am

Latest Report: Oct 13, 2019 at 10:01 am


Visibility: 10 mi

Pressure: 29.96 "Hg

Humidity: 79%

Dew Point: 72 °F

Location of WaipahuLocation

Past Weather in Waipahu — Graph

°F

Waipahu Temperature Yesterday

Maximum temperature yesterday: 83 °F (at 1:56 pm)
Minimum temperature yesterday: 70 °F (at 4:56 am)
Average temperature yesterday: 77 °F

High & Low Weather Summary for the Past Weeks

 TemperatureHumidityPressure
High88 °F (Oct 10, 2:56 pm)100% (Sep 30, 12:01 am)30.03 "Hg (Sep 30, 12:01 am)
Low67 °F (Oct 6, 5:56 am)60% (Oct 1, 2:56 pm)29.81 "Hg (Oct 9, 2:56 pm)
Average76 °F85%29.93 "Hg
* Reported Sep 28 10:11 am — Oct 13 10:01 am, Waipahu. Weather by CustomWeather, © 2019

Note: Actual official high and low records may vary slightly from our data, if they occured in-between our weather recording intervals... More about our weather records

Advertising

Waipahu Weather History for the Previous 24 Hours

Scroll right to see more
 ConditionsComfort  
Time TempWeatherWind HumidityBarometerVisibility
10:01 am
Sun, Oct 13
79 °FScattered clouds.6 mph79%29.96 "Hg10 mi
9:56 am80 °FPartly sunny.8 mph79%29.96 "Hg10 mi
8:56 am79 °FScattered clouds.8 mph81%29.96 "Hg10 mi
7:56 am76 °FScattered clouds.No wind89%29.96 "Hg10 mi
7:17 am72 °FCloudy.3 mph100%29.95 "Hg10 mi
7:02 am72 °FCloudy.No wind100%29.95 "Hg9 mi
6:56 am71 °FDrizzle. Fog.No wind99%29.95 "Hg6 mi
6:28 am70 °FBroken clouds.3 mph100%29.94 "Hg10 mi
6:15 am70 °FLight rain. Partly cloudy.No wind100%29.94 "Hg10 mi
5:56 am70 °FClear.3 mph99%29.93 "Hg10 mi
4:56 am71 °FPassing clouds.3 mph99%29.93 "Hg10 mi
4:18 am72 °FPartly cloudy.No wind100%29.91 "Hg10 mi
3:56 am71 °FPassing clouds.3 mph97%29.91 "Hg10 mi
3:11 am73 °FMostly cloudy.No wind94%29.91 "Hg10 mi
3:01 am73 °FMostly cloudy.No wind94%29.91 "Hg10 mi
2:56 am74 °FPartly cloudy.5 mph91%29.92 "Hg10 mi
1:56 am74 °FPassing clouds.3 mph87%29.93 "Hg10 mi
1:24 am75 °FPassing clouds.No wind83%29.93 "Hg10 mi
1:06 am75 °FDrizzle. Mostly cloudy.No wind83%29.93 "Hg10 mi
12:56 am75 °FPassing clouds.No wind84%29.93 "Hg10 mi
11:56 pm
Sat, Oct 12
75 °FPassing clouds.No wind85%29.94 "Hg10 mi
10:56 pm74 °FPassing clouds.7 mph86%29.95 "Hg10 mi
10:36 pm75 °FPartly cloudy.5 mph83%29.96 "Hg10 mi
9:56 pm77 °FMostly cloudy.3 mph79%29.95 "Hg10 mi
9:29 pm77 °FPartly cloudy.5 mph83%29.95 "Hg10 mi
9:20 pm77 °FLight rain. Mostly cloudy.6 mph79%29.95 "Hg10 mi
8:58 pm77 °FDrizzle. Mostly cloudy.No wind79%29.96 "Hg10 mi
8:06 pm77 °FMostly cloudy.7 mph79%29.95 "Hg10 mi
8:01 pm77 °FMostly cloudy.7 mph79%29.95 "Hg10 mi
6:56 pm78 °FPassing clouds.15 mph73%29.93 "Hg10 mi
5:56 pm78 °FScattered clouds.8 mph72%29.92 "Hg10 mi
4:56 pm81 °FPartly sunny.13 mph68%29.91 "Hg10 mi
3:56 pm81 °FPassing clouds.10 mph66%29.90 "Hg10 mi
2:56 pm83 °FPassing clouds.9 mph61%29.91 "Hg10 mi
1:56 pm83 °FPartly sunny.9 mph65%29.92 "Hg10 mi
12:56 pm82 °FPartly sunny.14 mph64%29.95 "Hg10 mi
11:56 am81 °FPartly sunny.12 mph70%29.98 "Hg10 mi
Weather by CustomWeather, © 2019

See weather overview